Le nostre stazioni meteo in Italia

Pubblicità
Il mio iltempo24.it
Forli, Italia (16147): Temperatura & dewpoint: 15.01.2020 04:00:00 - 21.01.2020 04:00:00 (CET)Forli, Italia (16147): velocità del vento: 15.01.2020 04:00:00 - 21.01.2020 04:00:00 (CET)Forli, Italia (16147): direzione del vento: 15.01.2020 04:00:00 - 21.01.2020 04:00:00 (CET)Forli, Italia (16147): reduced air pressure: 15.01.2020 04:00:00 - 21.01.2020 04:00:00 (CET)Forli, Italia (16147): visibility: 15.01.2020 04:00:00 - 21.01.2020 04:00:00 (CET)Forli, Italia (16147): precipitazioni: 15.01.2020 04:00:00 - 21.01.2020 04:00:00 (CET)
Data & Tempo tt [°C] td [°C] ff [km/h] ff [kn] dd ppp [hPa] vv [km] rr [mm]
21.01.2020 04:00:00 - - - - - - - -
21.01.2020 03:00:00 3,6 0,5 7 4 ONO 1041,0 - 0,0
21.01.2020 02:00:00 3,5 0,4 9 5 ONO 1041,2 - 0,0
21.01.2020 01:00:00 3,3 0,4 8 4 O 1041,2 - 0,0
21.01.2020 00:00:00 - - - - - - - -
20.01.2020 23:00:00 4,3 0,1 5 3 ONO 1041,0 - 0,0
20.01.2020 22:00:00 4,9 0,3 4 2 O 1040,8 - 0,0
20.01.2020 21:00:00 5,8 0,1 2 1 O 1040,3 - 0,0
20.01.2020 20:00:00 6,8 0,0 0 0 NE 1040,0 - 0,0
20.01.2020 19:00:00 7,0 -0,2 5 3 NNE 1039,4 - 0,0
20.01.2020 18:00:00 7,3 0,0 4 2 - 1038,8 10 0,0
20.01.2020 17:00:00 7,9 0,1 5 3 - 1038,2 10 0,0
20.01.2020 16:00:00 8,2 0,2 8 4 N 1037,9 10 0,0
20.01.2020 15:00:00 8,4 -0,6 11 6 NE 1037,8 10 0,0
20.01.2020 14:00:00 8,5 0,9 5 3 - 1037,8 10 0,0
20.01.2020 13:00:00 7,2 2,3 5 3 - 1037,9 8 0,0
20.01.2020 12:00:00 5,9 1,8 15 8 ONO 1038,1 8 0,0
20.01.2020 11:00:00 4,9 1,4 11 6 ONO 1038,2 8 0,0
20.01.2020 10:00:00 3,0 0,7 9 5 ONO 1037,7 8 0,0
20.01.2020 09:00:00 2,5 0,4 3 2 O 1037,1 - 0,0
20.01.2020 08:00:00 2,2 0,6 6 3 O 1036,4 - 0,0
20.01.2020 07:00:00 2,1 0,5 4 2 O 1035,9 - 0,0
20.01.2020 06:00:00 3,0 1,0 1 1 SO 1035,0 - 0,0
20.01.2020 05:00:00 2,7 0,9 0 0 SO 1034,6 - 0,0
20.01.2020 04:00:00 2,9 1,3 2 1 SSO 1034,5 - 0,0
20.01.2020 03:00:00 3,5 1,7 3 2 OSO 1034,0 - 0,0
20.01.2020 02:00:00 4,4 2,6 3 2 O 1033,3 - 0,0
20.01.2020 01:00:00 4,4 2,6 5 3 O 1032,8 - 0,0
20.01.2020 00:00:00 4,5 2,4 1 1 O 1032,3 - 0,0
19.01.2020 23:00:00 4,2 2,2 3 2 O 1031,6 - 0,0
19.01.2020 22:00:00 4,8 2,8 1 0 O 1030,8 - 0,0
19.01.2020 21:00:00 5,4 3,1 3 2 O 1030,4 - 0,0
19.01.2020 20:00:00 6,0 3,8 3 2 O 1029,7 - 0,0
19.01.2020 19:00:00 6,9 4,4 0 0 OSO 1028,7 - 0,0
19.01.2020 18:00:00 8,1 3,2 0 0 SE 1027,9 - 0,0
19.01.2020 17:00:00 9,0 2,3 2 1 E 1027,2 - 0,0
19.01.2020 16:00:00 9,3 1,7 6 3 E 1026,1 - 0,0
19.01.2020 15:00:00 9,3 2,8 13 7 E 1025,1 - 0,0
19.01.2020 14:00:00 9,3 3,5 8 4 N 1024,9 - 0,0
19.01.2020 13:00:00 7,7 5,5 3 2 ONO 1024,9 - 0,0
19.01.2020 12:00:00 7,3 5,4 5 3 O 1025,0 - 0,0
19.01.2020 11:00:00 6,8 5,1 8 4 ONO 1024,9 - 0,2
19.01.2020 10:00:00 6,6 5,1 6 3 ONO 1024,4 - 0,0
19.01.2020 09:00:00 6,3 - - - - - - -
19.01.2020 08:00:00 5,9 4,9 5 3 ONO 1023,2 - 0,0
19.01.2020 07:00:00 5,8 - - - - 1022,7 - -
19.01.2020 06:00:00 6,0 5,0 4 2 O 1022,3 - 0,0
19.01.2020 05:00:00 6,0 5,0 4 2 NO 1021,9 - 0,0
19.01.2020 04:00:00 6,1 5,1 3 2 NO 1021,7 - 0,0
19.01.2020 03:00:00 6,3 5,3 1 0 O 1021,8 - 0,0
19.01.2020 02:00:00 6,1 5,2 6 3 O 1021,5 - 0,4
19.01.2020 01:00:00 6,0 5,1 8 4 ONO 1021,2 - 0,4
19.01.2020 00:00:00 5,9 5,0 10 6 ONO 1021,2 - 0,8
18.01.2020 23:00:00 5,9 4,9 11 6 ONO 1020,9 - 0,8
18.01.2020 22:00:00 6,2 4,5 13 7 ONO 1020,8 - 0,2
18.01.2020 21:00:00 6,1 4,6 7 4 O 1020,7 - 0,4
18.01.2020 20:00:00 6,1 4,6 11 6 ONO 1020,6 - 0,4
18.01.2020 19:00:00 6,6 4,3 13 7 ONO 1020,6 - 0,0
18.01.2020 18:00:00 6,6 4,1 14 8 ONO 1020,2 - 0,0
18.01.2020 17:00:00 6,6 4,3 14 8 ONO 1019,6 - 0,0
18.01.2020 16:00:00 7,1 3,9 13 7 ONO 1019,3 - 0,0
18.01.2020 15:00:00 7,2 3,8 16 9 ONO 1019,2 - 0,0
18.01.2020 14:00:00 7,3 3,7 9 5 O 1019,1 - 0,0
18.01.2020 13:00:00 6,6 3,7 15 8 ONO 1019,5 - 0,0
18.01.2020 12:00:00 6,3 4,1 16 9 ONO 1019,8 - 0,2
18.01.2020 11:00:00 6,6 4,8 20 11 ONO 1019,9 - 0,8
18.01.2020 10:00:00 6,1 5,1 13 7 ONO 1019,8 - 1,4
18.01.2020 09:00:00 6,1 4,9 10 5 ONO 1019,5 - 0,6
18.01.2020 08:00:00 6,2 5,0 11 6 ONO 1019,3 - 1,4
18.01.2020 07:00:00 7,2 5,2 6 3 ONO 1018,7 - 0,0
18.01.2020 06:00:00 7,3 4,8 4 2 NNO 1018,1 - 0,2
18.01.2020 05:00:00 7,6 4,4 3 2 NO 1017,6 - 0,0
18.01.2020 04:00:00 7,3 4,1 0 0 E 1017,8 - 0,0
18.01.2020 03:00:00 7,3 3,9 3 2 E 1018,4 - 0,0
18.01.2020 02:00:00 7,6 3,8 2 1 ENE 1018,9 - 0,0
18.01.2020 01:00:00 7,9 3,7 4 2 SSE 1019,2 - 0,0
18.01.2020 00:00:00 7,8 3,6 3 1 SSE 1019,7 - 0,0
17.01.2020 23:00:00 7,8 3,8 2 1 S 1020,5 - 0,0
17.01.2020 22:00:00 7,5 3,4 5 3 S 1021,0 - 0,0
17.01.2020 21:00:00 7,2 3,3 5 3 S 1021,4 - 0,0
17.01.2020 20:00:00 8,1 3,6 2 1 SSO 1021,5 - 0,0
17.01.2020 19:00:00 9,3 3,9 3 1 SSE 1021,7 - 0,0
17.01.2020 18:00:00 10,5 3,5 4 2 - 1021,7 10 0,0
17.01.2020 17:00:00 11,6 3,4 0 0 N 1021,6 10 -
17.01.2020 16:00:00 12,7 3,4 0 0 N 1021,5 10 0,0
17.01.2020 15:00:00 12,4 3,3 0 0 N 1021,6 10 0,0
17.01.2020 14:00:00 11,3 3,8 4 2 - 1021,8 10 0,0
17.01.2020 13:00:00 10,5 3,3 2 1 - 1022,7 10 0,0
17.01.2020 12:00:00 9,6 3,1 0 0 N 1023,3 10 0,0
17.01.2020 11:00:00 8,1 2,3 0 0 N 1024,1 10 0,0
17.01.2020 10:00:00 7,1 2,0 1 0 S 1024,1 10 0,0
17.01.2020 09:00:00 4,0 0,7 3 2 SSO 1024,1 - 0,0
17.01.2020 08:00:00 2,8 0,4 1 1 S 1024,0 - 0,0
17.01.2020 07:00:00 3,0 0,2 5 3 SO 1024,2 - 0,0
17.01.2020 06:00:00 2,9 0,5 5 3 SO 1024,3 - 0,0
17.01.2020 05:00:00 2,8 0,5 0 0 SSO 1024,6 - 0,0
17.01.2020 04:00:00 3,1 0,8 4 2 SSO 1025,0 - 0,0
17.01.2020 03:00:00 3,1 1,0 1 0 SSO 1025,5 - 0,0
17.01.2020 02:00:00 3,7 1,2 3 2 OSO 1025,9 - 0,0
17.01.2020 01:00:00 3,8 1,5 3 1 OSO 1026,3 - 0,0
17.01.2020 00:00:00 4,0 1,9 3 2 OSO 1026,6 - 0,0
16.01.2020 23:00:00 4,0 2,0 3 2 OSO 1027,0 - 0,0
16.01.2020 22:00:00 3,9 2,3 3 2 OSO 1027,3 - 0,0
16.01.2020 21:00:00 4,4 2,6 6 3 SO 1027,7 - 0,0
16.01.2020 20:00:00 5,1 3,4 6 3 OSO 1028,0 - 0,0
16.01.2020 19:00:00 6,2 4,5 2 1 OSO 1028,1 - 0,0
16.01.2020 18:00:00 7,0 4,7 2 1 - 1027,8 2,0 0,0
16.01.2020 17:00:00 8,5 3,7 5 3 - 1027,7 2,5 0,0
16.01.2020 16:00:00 8,8 3,8 8 4 ONO 1027,6 3,0 0,0
16.01.2020 15:00:00 9,1 4,7 4 2 - 1027,8 2,5 0,0
16.01.2020 14:00:00 8,6 4,6 9 5 ONO 1028,3 2,0 0,0
16.01.2020 13:00:00 8,2 4,2 8 4 NO 1028,9 1,6 0,0
16.01.2020 12:00:00 7,7 4,1 9 5 NO 1029,5 1,1 0,0
16.01.2020 11:00:00 7,0 3,6 2 1 - 1030,1 0,9 0,0
16.01.2020 10:00:00 4,6 2,1 3 2 OSO 1030,1 0,9 0,0
16.01.2020 09:00:00 3,5 1,5 4 2 SO 1029,8 - 0,0
16.01.2020 08:00:00 3,4 1,8 4 2 SO 1029,3 - 0,0
16.01.2020 07:00:00 3,5 1,7 1 1 SO 1028,8 - 0,0
16.01.2020 06:00:00 4,9 2,9 - - - - - -
16.01.2020 05:00:00 5,7 3,2 - - - 1027,9 - 0,0
16.01.2020 04:00:00 5,9 3,2 0 0 O 1027,8 - 0,0
16.01.2020 03:00:00 6,0 3,2 1 0 O 1027,6 - 0,0
16.01.2020 02:00:00 6,0 3,2 0 0 SSO 1027,4 - 0,0
16.01.2020 01:00:00 6,1 3,3 0 0 SO 1027,3 - 0,0
16.01.2020 00:00:00 6,1 3,3 1 1 OSO 1027,4 - 0,0
15.01.2020 23:00:00 6,0 3,3 0 0 OSO 1027,4 - 0,0
15.01.2020 22:00:00 6,4 - - - - - - -
15.01.2020 21:00:00 6,7 3,7 1 0 NE 1027,0 - 0,0
15.01.2020 20:00:00 6,6 3,4 3 1 ESE 1027,0 - 0,0
15.01.2020 19:00:00 7,0 3,1 1 0 E 1027,1 - 0,0
15.01.2020 18:00:00 7,4 3,3 2 1 - 1026,9 2,0 0,0
15.01.2020 17:00:00 7,8 2,9 2 1 - 1026,6 2,0 0,0
15.01.2020 16:00:00 8,1 3,0 0 0 N 1026,3 2,0 0,0
15.01.2020 15:00:00 8,2 2,9 2 1 - 1026,2 2,0 0,0
15.01.2020 14:00:00 8,0 3,1 2 1 - 1026,2 2,0 0,0
15.01.2020 13:00:00 8,3 2,7 0 0 N 1026,5 2,0 0,0
15.01.2020 12:00:00 6,9 2,2 2 1 - 1027,0 2,0 0,0
15.01.2020 11:00:00 6,4 2,8 2 1 - 1027,4 2,0 0,0
15.01.2020 10:00:00 5,0 2,5 2 1 - 1027,3 2,0 0,0
15.01.2020 09:00:00 4,5 2,5 0 0 OSO 1027,1 - 0,0
15.01.2020 08:00:00 4,3 2,2 3 2 NO 1026,8 - -
15.01.2020 07:00:00 4,4 - - - - 1026,5 - 0,0
15.01.2020 06:00:00 3,9 1,8 0 0 SSO 1026,2 - 0,0
15.01.2020 05:00:00 4,0 1,9 0 0 NO 1026,1 - 0,0
15.01.2020 04:00:00 4,6 2,1 1 0 SO 1026,2 - 0,0

tt = Temperatura
td = dewpoint
ff = velocità del vento
dd = direzione del vento
ppp = reduced air pressure
vv = visibility
rr = precipitazioni

Stazioni seguenti

WeatherPro
AMSI
MeteoEarth